SCP
-0 -0 -0 -0 -0 -0 0 0 0 0 0 0 0 0 0 0 0 0 0 0 0 0
-0 -0 -0 -0 -0 -0 -0 0 0 0 0 0 0 0 0 0 0 0 0 0 0 0
-0 -0 -0 -0 -0 -0 -0 0 0 0 0 0 0 0 0 0 0 0 0 0 0 0
0 -0 -0 -0 -0 -0 -0 -0 0 0 0 0 0 0 0 0 0 0 0 0 0 0
0 -0 -0 -0 -0 -0 -0 0 -0 0 0 0 0 0 0 0 0 0 0 0 0 0
0 -0 0 0 0 -0 -0 0 0 0 0 0 0 0 0 0 0 0 0 0 0 0
0 -0 0 0 0 0 -0 -0 0 0 0 0 0 0 0 0 0 0 0 0 0 0
0 0 -0 0 0 0 0 0 0 0 0 0 0 0 0 0 0 0 0 0 0 0
0 0 -0 -0 0 0 0 0 0 0 0 0 0 0 0 0 0 0 0 0 0 0
-0 -0 -0 -0 0 0 0 0 0 0 0 0 0 0 0 0 0 0 0 0 0 0
-0 -0 -0 0 0 0 0 0 0 0 0 0 0 0 0 0 0 0 0 0 0 0
-0 -0 -0 0 0 0 0 0 0 0 0 0 0 0 0 0 0 0 0 0 0 0
-0 -0 -0 0 0 0 0 0 0 0 0 0 0 0 0 0 0 0 0 0 0 0
-0 0 0 0 0 0 0 0 0 0 0 0 0 0 0 0 0 0 0 0 0 0
Wind_Speed_500mb
53 64 73 75 79 90 86 99 91 85 87 93 93 94 88 81 83 82 81 79 76 72
49 58 60 62 75 91 92 80 102 95 74 82 86 94 97 94 88 85 87 86 81 78
54 48 53 52 59 78 84 97 88 90 71 70 82 85 93 99 95 90 86 88 87 83
57 46 45 46 50 61 65 71 69 96 83 71 88 79 84 90 98 92 86 86 89 83
49 55 40 38 44 54 56 53 62 39 70 80 66 60 93 91 85 85 79 78 85 79
45 52 50 31 40 52 54 48 61 47 33 22 35 53 73 82 78 86 84 83 85 79
44 45 48 35 27 44 44 48 57 59 32 37 35 29 46 63 75 89 84 80 72 70
43 42 38 37 19 29 42 33 32 39 39 44 18 23 36 42 46 51 55 58 67 60
42 40 38 30 26 18 42 35 20 38 44 40 40 39 36 38 56 66 71 71 68 58
41 39 36 27 24 18 32 21 25 8 15 54 65 52 54 62 68 67 65 65 68 65
31 36 36 24 18 13 15 17 36 26 30 55 43 62 67 72 68 68 66 64 61 58
25 27 29 19 8 10 17 27 45 33 40 28 26 34 47 65 75 74 73 68 60 55
22 21 21 14 5 12 27 39 54 61 60 61 60 58 62 69 74 78 78 72 65 49
14 11 9 5 7 19 33 44 53 63 73 75 73 79 81 78 78 78 78 66 61 51
Wind_Direction_500mb
293 285 280 280 290 287 289 241 243 241 232 230 232 232 233 231 231 229 232 239 239 241
275 281 288 283 273 292 291 285 249 240 235 232 231 232 233 235 235 234 232 234 242 242
273 274 286 285 271 266 293 294 244 240 237 236 232 229 232 234 236 239 238 236 235 240
280 277 273 280 281 265 279 292 296 239 237 242 238 234 230 234 235 236 238 239 235 237
289 288 279 276 269 255 260 265 277 278 231 229 234 243 241 227 232 233 234 236 234 228
302 295 289 281 279 276 251 264 281 275 264 257 233 238 234 236 233 227 229 229 227 225
305 308 299 289 279 277 273 258 268 251 255 257 278 265 248 243 233 216 217 209 200 189
310 314 309 297 287 279 289 255 259 280 251 227 220 229 210 209 206 201 175 160 154 151
318 322 318 309 300 288 293 250 237 279 212 198 175 165 153 158 158 155 155 151 146 149
327 333 322 318 295 269 288 243 193 144 230 173 166 171 167 169 163 160 155 147 143 134
336 332 323 319 300 258 260 186 166 176 190 192 163 176 179 173 158 146 137 128 121 125
328 327 320 317 280 213 179 170 144 142 152 154 133 161 160 155 143 131 125 125 124 129
333 328 321 313 276 190 175 162 154 153 143 141 138 145 146 144 140 130 125 133 139 142
353 345 341 348 197 177 165 152 145 136 135 133 138 141 142 142 142 140 137 138 137 143
Wind_Speed_850mb
53 64 73 75 79 90 86 99 91 85 87 93 93 94 88 81 83 82 81 79 76 72
49 58 60 62 75 91 92 80 102 95 74 82 86 94 97 94 88 85 87 86 81 78
54 48 53 52 59 78 84 97 88 90 71 70 82 85 93 99 95 90 86 88 87 83
57 46 45 46 50 61 65 71 69 96 83 71 88 79 84 90 98 92 86 86 89 83
49 55 40 38 44 54 56 53 62 39 70 80 66 60 93 91 85 85 79 78 85 79
45 52 50 31 40 52 54 48 61 47 33 22 35 53 73 82 78 86 84 83 85 79
44 45 48 35 27 44 44 48 57 59 32 37 35 29 46 63 75 89 84 80 72 70
43 42 38 37 19 29 42 33 32 39 39 44 18 23 36 42 46 51 55 58 67 60
42 40 38 30 26 18 42 35 20 38 44 40 40 39 36 38 56 66 71 71 68 58
41 39 36 27 24 18 32 21 25 8 15 54 65 52 54 62 68 67 65 65 68 65
31 36 36 24 18 13 15 17 36 26 30 55 43 62 67 72 68 68 66 64 61 58
25 27 29 19 8 10 17 27 45 33 40 28 26 34 47 65 75 74 73 68 60 55
22 21 21 14 5 12 27 39 54 61 60 61 60 58 62 69 74 78 78 72 65 49
14 11 9 5 7 19 33 44 53 63 73 75 73 79 81 78 78 78 78 66 61 51
Wind_Direction_850mb
293 285 280 280 290 287 289 241 243 241 232 230 232 232 233 231 231 229 232 239 239 241
275 281 288 283 273 292 291 285 249 240 235 232 231 232 233 235 235 234 232 234 242 242
273 274 286 285 271 266 293 294 244 240 237 236 232 229 232 234 236 239 238 236 235 240
280 277 273 280 281 265 279 292 296 239 237 242 238 234 230 234 235 236 238 239 235 237
289 288 279 276 269 255 260 265 277 278 231 229 234 243 241 227 232 233 234 236 234 228
302 295 289 281 279 276 251 264 281 275 264 257 233 238 234 236 233 227 229 229 227 225
305 308 299 289 279 277 273 258 268 251 255 257 278 265 248 243 233 216 217 209 200 189
310 314 309 297 287 279 289 255 259 280 251 227 220 229 210 209 206 201 175 160 154 151
318 322 318 309 300 288 293 250 237 279 212 198 175 165 153 158 158 155 155 151 146 149
327 333 322 318 295 269 288 243 193 144 230 173 166 171 167 169 163 160 155 147 143 134
336 332 323 319 300 258 260 186 166 176 190 192 163 176 179 173 158 146 137 128 121 125
328 327 320 317 280 213 179 170 144 142 152 154 133 161 160 155 143 131 125 125 124 129
333 328 321 313 276 190 175 162 154 153 143 141 138 145 146 144 140 130 125 133 139 142
353 345 341 348 197 177 165 152 145 136 135 133 138 141 142 142 142 140 137 138 137 143